DateTimeUTC,F1_A11,F1_S11,BsB_S11,BsG_S11,BsR_S11,BbsB_S11,BbsG_S11,BbsR_S11,BaB_A11,BaG_A11,BaR_A11,T_S11,U_S11,P_S11,T1_A11
2020-07-14T00:00:00Z,00000380,20000600,,,,,,,,,,24.0,05.0,0668.7,31.0
2020-07-14T00:01:00Z,00000380,20000600,,,,,,,,,,24.0,05.0,0668.7,31.0
2020-07-14T00:02:00Z,00000380,20000600,,,,,,,,,,24.0,05.0,0668.7,31.0
2020-07-14T00:03:00Z,00000380,60000600,,,,,,,,,,24.0,05.0,0668.7,31.0
2020-07-14T00:04:00Z,00000380,40000600,0000.37,0000.70,0000.15,0000.11,0000.42,0000.08,0000.04,-000.10,0000.06,23.8,05.2,0669.7,31.0
2020-07-14T00:05:00Z,00000380,00000600,0000.28,0000.89,0000.16,0000.22,0000.46,-000.29,0000.05,0000.07,0000.11,23.7,05.3,0669.8,31.0
2020-07-14T00:06:00Z,00000380,00000600,0002.02,0000.41,0000.13,0000.87,0000.24,-000.02,0000.06,-000.00,-000.09,23.7,05.3,0669.7,31.0
2020-07-14T00:07:00Z,00000380,00000600,0000.82,0000.64,0000.29,0000.81,0000.28,0000.13,0000.13,0000.08,0000.12,23.7,05.3,0669.8,31.0
2020-07-14T00:08:00Z,00000380,00000600,0001.39,0001.30,0000.82,0001.38,0000.05,0000.30,-000.07,0000.06,-000.03,23.7,05.4,0669.7,31.0
2020-07-14T00:09:00Z,00000380,00000600,0001.49,0000.75,0000.36,0001.06,0000.26,-000.29,0000.18,-000.00,0000.02,23.7,05.3,0669.7,31.0
2020-07-14T00:10:00Z,00000380,00000600,-000.09,0001.21,0000.70,0001.12,0000.10,-000.39,-000.12,-000.04,-000.01,23.7,05.3,0669.8,31.0
2020-07-14T00:11:00Z,00000380,00000600,0001.98,0000.70,0000.55,0000.94,0000.14,0000.46,0000.05,0000.17,0000.13,23.7,05.3,0669.8,31.0
2020-07-14T00:12:00Z,00000380,00000600,0000.95,0000.72,0000.78,0000.33,0000.34,0000.14,0000.04,-000.01,0000.08,23.6,05.3,0669.8,31.0
2020-07-14T00:13:00Z,00000380,00000600,0001.68,0000.55,0000.63,0000.03,0000.36,0000.16,-000.07,-000.03,-000.08,23.6,05.3,0669.8,31.0
2020-07-14T00:14:00Z,00000380,00000600,0002.16,0000.34,0000.55,0000.72,0000.57,0000.03,0000.06,-000.06,0000.00,23.6,05.3,0669.8,31.0
2020-07-14T00:15:00Z,00000380,00000600,0001.42,0001.32,0000.78,-000.35,0000.18,0000.08,-000.03,-000.00,0000.03,23.6,05.3,0669.8,31.0
2020-07-14T00:16:00Z,00000380,00000600,0000.45,0000.50,0000.73,0000.89,0000.36,0000.38,0000.04,0000.14,0000.09,23.6,05.3,0669.8,31.0
2020-07-14T00:17:00Z,00000380,00000600,0001.88,0000.73,0000.38,0000.80,0000.40,-000.05,0000.05,-000.04,-000.06,23.6,05.3,0669.8,31.0
2020-07-14T00:18:00Z,00000380,00000600,0000.83,0000.84,0000.76,-000.13,0000.68,0000.33,-000.07,-000.05,-000.02,23.6,05.2,0669.8,31.0
2020-07-14T00:19:00Z,00000380,00000600,0001.50,0001.04,0000.47,0000.46,0000.33,0000.30,0000.06,0000.09,-000.08,23.6,05.2,0669.9,31.0
2020-07-14T00:20:00Z,00000380,00000600,0000.82,0000.93,0000.65,0000.32,0000.03,0000.34,-000.07,0000.03,0000.09,23.6,05.2,0669.9,31.0
2020-07-14T00:21:00Z,00000380,00000600,0000.98,0000.52,0000.45,0000.05,0000.34,0000.50,-000.01,-000.04,-000.03,23.6,05.2,0669.9,31.0
2020-07-14T00:22:00Z,00000380,00000600,0001.40,0000.28,0000.54,0000.66,0000.47,-000.16,0000.02,0000.08,0000.07,23.6,05.2,0669.9,31.0
2020-07-14T00:23:00Z,00000380,00000600,0001.14,0000.87,0000.43,0000.48,0000.06,0000.06,0000.07,-000.01,0000.01,23.6,05.2,0669.9,31.0
2020-07-14T00:24:00Z,00000380,00000600,0000.43,0000.79,0000.40,0000.63,-000.04,0000.28,0000.03,-000.02,-000.01,23.6,05.2,0669.9,31.0
2020-07-14T00:25:00Z,00000380,00000600,0001.40,0000.91,0001.08,0000.61,-000.06,0000.02,-000.00,0000.05,0000.20,23.6,05.2,0669.9,31.0
2020-07-14T00:26:00Z,00000380,00000600,0001.29,0000.54,0000.38,0000.38,0000.07,-000.08,-000.00,-000.01,-000.05,23.6,05.2,0669.9,31.0
2020-07-14T00:27:00Z,00000380,00000600,0000.89,0000.53,0000.19,0000.06,0000.24,0000.14,0000.05,0000.09,-000.02,23.6,05.2,0669.9,31.0
2020-07-14T00:28:00Z,00000380,00000600,0000.84,0000.83,0000.36,0000.56,0000.38,0000.43,-000.00,-000.14,-000.01,23.6,05.1,0669.9,31.0
2020-07-14T00:29:00Z,00000380,00000600,-000.13,0001.15,0000.55,0000.85,-000.09,0000.05,0000.09,0000.16,0000.09,23.6,05.1,0669.9,31.0
2020-07-14T00:30:00Z,00000380,00000600,0001.25,0000.89,0000.22,0000.46,0000.11,-000.20,-000.03,0000.04,-000.15,23.5,05.1,0669.9,31.0
2020-07-14T00:31:00Z,00000380,00000600,0000.58,0000.42,0000.27,0000.63,-000.15,-000.36,0000.03,-000.12,0000.14,23.5,05.0,0669.9,31.0
2020-07-14T00:32:00Z,00000380,00000600,0001.16,0001.19,0000.53,0000.54,0000.14,-000.08,-000.04,0000.02,-000.07,23.5,05.1,0669.9,31.0
2020-07-14T00:33:00Z,00000380,00000600,0000.65,0000.77,0000.34,0000.74,0000.42,-000.34,0000.15,0000.15,0000.09,23.5,05.1,0669.9,31.0
2020-07-14T00:34:00Z,00000380,00000600,0001.45,-000.06,0000.28,0000.58,0000.14,-000.03,0000.11,-000.10,0000.07,23.5,05.1,0669.9,31.0
2020-07-14T00:35:00Z,00000380,00000600,0001.47,0000.59,0000.21,0000.53,0000.04,-000.27,-000.06,0000.10,0000.09,23.5,05.0,0669.9,31.0
2020-07-14T00:36:00Z,00000380,00000600,0000.38,0000.68,0000.59,0000.18,-000.03,0000.29,-000.08,-000.07,-000.01,23.5,05.0,0669.9,31.0
2020-07-14T00:37:00Z,00000380,00000600,0000.89,0000.31,0000.34,0000.01,0000.24,-000.09,-000.01,0000.15,-000.05,23.5,05.1,0669.9,31.0
2020-07-14T00:38:00Z,00000380,00000600,0002.43,0000.71,0000.62,0001.02,0000.13,-000.14,0000.17,0000.05,0000.09,23.5,05.0,0669.9,31.0
2020-07-14T00:39:00Z,00000380,00000600,0000.24,0000.80,0000.49,0001.28,0000.02,0000.15,0000.03,-000.01,-000.06,23.5,05.0,0669.9,31.0
2020-07-14T00:40:00Z,00000380,00000600,0001.70,0000.80,0000.74,0000.75,0000.14,0000.18,0000.09,0000.14,0000.13,23.5,05.0,0669.9,31.0
2020-07-14T00:41:00Z,00000380,00000600,0000.92,0001.19,0000.61,0000.67,0000.05,-000.35,-000.03,-000.05,-000.03,23.5,04.9,0670.0,31.0
2020-07-14T00:42:00Z,00000380,00000600,0001.26,0000.83,-000.22,0000.32,0000.06,-000.16,-000.06,-000.09,-000.16,23.5,05.0,0670.0,31.0
2020-07-14T00:43:00Z,00000380,00000600,0000.71,0001.08,0000.19,0000.15,0000.51,-000.27,0000.06,0000.04,0000.11,23.5,05.0,0669.9,31.0
2020-07-14T00:44:00Z,00000380,00000600,0001.33,0001.04,0000.99,-000.66,0000.15,0000.25,0000.17,0000.10,0000.16,23.5,04.9,0669.9,31.0
2020-07-14T00:45:00Z,00000380,00000600,0001.04,0000.21,0000.69,0000.67,-000.10,0000.43,0000.03,0000.03,-000.05,23.5,04.9,0669.9,31.0
2020-07-14T00:46:00Z,00000380,00000600,0002.07,0000.99,0000.48,0000.78,0000.40,0000.29,-000.04,0000.10,0000.13,23.5,05.0,0669.9,31.0
2020-07-14T00:47:00Z,00000380,00000600,0000.52,0000.91,0000.15,-000.87,0000.03,-000.26,0000.08,0000.07,0000.09,23.5,04.9,0669.9,31.0
2020-07-14T00:48:00Z,00000380,00000600,0000.88,0000.60,0000.60,0000.68,0000.14,0000.20,-000.14,-000.15,-000.25,23.5,05.0,0669.9,31.0
2020-07-14T00:49:00Z,00000380,00000600,0001.16,0001.02,-000.02,0000.38,0000.21,-000.05,0000.05,-000.08,0000.07,23.5,05.0,0669.9,31.0
2020-07-14T00:50:00Z,00000380,00000600,0000.45,-000.03,0000.59,0000.29,0000.00,-000.08,0000.08,0000.25,0000.10,23.5,05.0,0669.9,31.0
2020-07-14T00:51:00Z,00000380,00000600,0001.29,0000.23,0000.20,-000.21,0000.08,-000.07,0000.09,-000.03,0000.03,23.5,05.0,0669.9,31.0
2020-07-14T00:52:00Z,00000380,00000600,0001.47,0000.62,0000.35,-000.37,0000.19,0000.27,-000.11,0000.12,0000.09,23.5,04.9,0669.9,31.0
2020-07-14T00:53:00Z,00000380,00000600,0001.27,0000.83,0000.33,0000.33,0000.38,0000.18,0000.05,-000.03,-000.05,23.4,04.8,0669.9,31.0
2020-07-14T00:54:00Z,00000380,00000600,0001.82,0000.44,0000.23,0000.64,0000.27,0000.26,0000.13,-000.07,-000.11,23.4,04.9,0669.9,31.0
2020-07-14T00:55:00Z,00000380,00000600,0000.91,0000.55,0000.52,0000.96,0000.37,0000.05,-000.10,0000.02,0000.10,23.4,04.9,0669.9,31.0
2020-07-14T00:56:00Z,00000380,00000600,0000.75,0000.61,-000.18,0000.41,0000.07,0000.08,0000.10,0000.05,0000.14,23.4,04.8,0669.9,31.0
2020-07-14T00:57:00Z,00000380,40000600,,,,,,,,,,23.5,05.2,0669.8,31.0
2020-07-14T00:58:00Z,00000380,60000600,,,,,,,,,,23.6,04.7,0668.9,31.0
2020-07-14T00:59:00Z,00000380,20000600,,,,,,,,,,23.7,04.6,0668.9,31.0
2020-07-14T01:00:00Z,00000380,20000600,,,,,,,,,,23.7,04.6,0668.9,31.0
2020-07-14T01:01:00Z,00000380,20000600,,,,,,,,,,23.7,04.6,0668.9,31.0
2020-07-14T01:02:00Z,00000380,20000600,,,,,,,,,,23.7,04.6,0668.9,31.0
2020-07-14T01:03:00Z,00000380,60000600,,,,,,,,,,23.7,04.6,0668.9,31.0
2020-07-14T01:04:00Z,00000380,40000600,0001.23,0000.52,0000.66,-000.71,-000.01,-000.14,0000.12,0000.39,0000.07,23.5,04.7,0669.8,31.0
2020-07-14T01:05:00Z,00000380,00000600,0002.56,0000.93,0000.66,0000.59,-000.14,0000.20,0000.10,0000.01,0000.09,23.5,04.9,0669.9,31.0
2020-07-14T01:06:00Z,00000380,00000600,0001.28,0000.28,0000.64,0000.17,-000.08,-000.11,0000.01,0000.01,0000.04,23.4,05.0,0669.9,31.0
2020-07-14T01:07:00Z,00000380,00000600,0001.08,0000.39,-000.16,0000.01,0000.19,0000.01,-000.07,-000.06,-000.03,23.4,04.9,0669.9,31.0
2020-07-14T01:08:00Z,00000380,00000600,0000.44,0000.48,0000.84,0000.12,-000.01,-000.12,0000.10,-000.04,-000.02,23.4,04.9,0669.9,31.0
2020-07-14T01:09:00Z,00000380,00000600,0000.83,0000.77,0000.06,-000.85,0000.54,0000.14,-000.20,0000.03,0000.06,23.4,04.7,0669.9,31.0
2020-07-14T01:10:00Z,00000380,00000600,0001.36,0001.19,0000.95,-000.83,0000.11,0000.67,0000.10,-000.03,-000.05,23.4,04.7,0669.9,31.0
2020-07-14T01:11:00Z,00000380,00000600,0002.29,0000.60,0001.00,-000.09,-000.14,0000.24,-000.03,-000.07,0000.06,23.4,04.6,0669.9,31.0
2020-07-14T01:12:00Z,00000380,00000600,0001.43,0000.79,0000.86,-000.33,-000.13,0000.50,0000.11,0000.05,-000.11,23.4,04.6,0669.9,31.0
2020-07-14T01:13:00Z,00000380,00000600,0000.89,0000.53,0000.41,-001.08,-000.29,0000.13,-000.20,-000.01,0000.01,23.4,04.5,0669.9,31.0
2020-07-14T01:14:00Z,00000380,00000600,0001.36,0000.63,0000.29,-000.30,0000.22,-000.04,0000.02,-000.03,-000.02,23.3,04.5,0669.9,31.0
2020-07-14T01:15:00Z,00000380,00000600,0000.64,0000.98,0000.27,-000.19,0000.19,0000.00,-000.35,-000.32,-000.10,23.4,04.2,0669.9,31.0
2020-07-14T01:16:00Z,00000380,00000600,0001.18,0000.94,0000.48,0000.48,0000.36,0000.01,0000.07,0000.02,-000.05,23.4,03.9,0669.9,31.0
2020-07-14T01:17:00Z,00000380,00000600,0001.10,0000.83,0000.60,-001.45,0000.42,0000.38,0000.44,0000.27,0000.21,23.4,04.2,0669.9,31.0
2020-07-14T01:18:00Z,00000380,00000600,0001.12,0000.60,0000.65,-000.01,0000.48,0000.38,0000.16,0000.29,0000.17,23.3,04.5,0669.9,31.0
2020-07-14T01:19:00Z,00000380,00000600,0002.67,0000.44,0000.43,-000.41,0000.51,0000.37,-000.10,-000.03,-000.10,23.3,04.6,0669.9,31.0
2020-07-14T01:20:00Z,00000380,00000600,0000.84,0001.03,0000.61,-000.06,0000.02,0000.32,0000.10,-000.03,0000.09,23.3,04.5,0669.9,31.0
2020-07-14T01:21:00Z,00000380,00000600,0001.68,0000.29,-000.34,-000.14,-000.02,0000.28,0000.07,0000.22,0000.08,23.3,04.6,0669.9,31.0
2020-07-14T01:22:00Z,00000380,00000600,0001.69,0000.54,0000.44,-000.02,-000.15,0000.58,-000.08,-000.17,0000.07,23.3,04.6,0669.9,31.0
2020-07-14T01:23:00Z,00000380,00000600,0001.48,0000.60,0000.77,-000.39,-000.03,0000.41,-000.14,0000.01,-000.11,23.3,04.4,0669.9,31.0
2020-07-14T01:24:00Z,00000380,00000600,0002.50,0000.95,0000.75,-000.08,0000.22,0000.22,0000.18,0000.15,0000.19,23.3,04.3,0670.0,31.0
2020-07-14T01:25:00Z,00000380,00000600,0000.73,0000.26,0000.44,-000.45,0000.11,0000.08,-000.06,-000.10,-000.08,23.3,04.4,0670.0,31.0
2020-07-14T01:26:00Z,00000380,00000600,0001.14,0000.58,0000.93,-000.77,0000.23,0000.31,-000.02,0000.12,-000.03,23.4,04.3,0670.0,31.0
2020-07-14T01:27:00Z,00000380,00000600,0000.13,0000.52,0000.45,-000.38,-000.20,0000.35,0000.08,-000.04,0000.16,23.3,04.4,0670.0,31.0
2020-07-14T01:28:00Z,00000380,00000600,0000.42,0000.56,0000.37,-000.45,-000.11,-000.00,0000.20,0000.11,-000.04,23.4,04.5,0670.0,31.0
2020-07-14T01:29:00Z,00000380,00000600,0001.42,0000.57,0000.52,0000.00,0000.27,0000.24,-000.09,0000.06,0000.02,23.4,04.4,0670.0,31.0
2020-07-14T01:30:00Z,00000380,00000600,0000.78,0001.00,0000.28,-000.65,0000.41,0000.07,0000.06,0000.01,0000.04,23.4,04.4,0670.0,31.0
2020-07-14T01:31:00Z,00000380,00000600,0002.16,0000.54,0000.55,-000.49,0000.31,-000.01,0000.01,-000.01,-000.00,23.4,04.5,0670.0,31.0
2020-07-14T01:32:00Z,00000380,00000600,0001.37,0001.23,0000.67,0000.87,0000.35,0000.46,-000.09,-000.06,0000.04,23.3,04.5,0670.0,31.0
2020-07-14T01:33:00Z,00000380,00000600,0001.64,0000.22,0000.39,-000.52,-000.11,0000.18,0000.05,0000.10,0000.02,23.4,04.3,0670.0,31.0
2020-07-14T01:34:00Z,00000380,00000600,0000.26,0000.81,0000.33,-000.67,0000.12,0000.07,0000.03,0000.13,0000.12,23.3,04.3,0670.0,31.0
2020-07-14T01:35:00Z,00000380,00000600,0001.22,0001.11,0000.31,0000.23,0000.15,-000.06,0000.04,-000.10,-000.10,23.3,04.2,0670.0,31.0
2020-07-14T01:36:00Z,00000380,00000600,0000.92,0000.98,0000.27,-000.24,-000.26,0000.12,-000.05,-000.18,-000.02,23.3,04.2,0670.0,30.9
2020-07-14T01:37:00Z,00000380,00000600,0001.04,0000.64,0000.42,-000.10,0000.12,0000.07,-000.04,-000.06,-000.03,23.3,04.1,0670.0,31.0
2020-07-14T01:38:00Z,00000380,00000600,0002.03,0000.75,0000.33,-000.29,-000.02,-000.16,0000.12,0000.21,0000.02,23.3,04.2,0670.0,31.0
2020-07-14T01:39:00Z,00000380,00000600,0001.43,0000.74,0000.03,-000.53,-000.02,0000.32,-000.01,0000.15,0000.05,23.3,04.2,0670.0,31.0
2020-07-14T01:40:00Z,00000380,00000600,0001.13,0000.72,0000.40,-000.52,-000.41,0000.33,0000.06,-000.13,0000.01,23.3,04.2,0670.0,31.0
2020-07-14T01:41:00Z,00000380,00000600,0000.93,0000.89,0000.90,-000.27,0000.29,0000.19,-000.07,0000.05,-000.08,23.3,04.2,0670.0,31.0
2020-07-14T01:42:00Z,00000380,00000600,0001.01,0000.71,0000.46,-000.82,-000.10,-000.06,0000.24,0000.19,0000.12,23.3,04.2,0670.0,31.0
2020-07-14T01:43:00Z,00000380,00000600,0001.54,0000.80,0000.09,0000.28,0000.12,0000.45,-000.02,-000.03,0000.17,23.3,04.3,0670.0,31.0
2020-07-14T01:44:00Z,00000380,00000600,0000.04,0000.49,0000.80,-000.56,0000.46,0000.47,0000.02,-000.00,-000.14,23.3,04.2,0670.0,31.0
2020-07-14T01:45:00Z,00000380,00000600,0000.89,0000.87,0000.76,-000.63,-000.00,0000.15,-000.04,-000.07,-000.03,23.2,04.3,0670.0,31.0
2020-07-14T01:46:00Z,00000380,00000600,0000.85,0000.59,0000.71,-000.40,0000.40,0000.18,-000.07,0000.04,0000.15,23.3,04.2,0670.0,31.0
2020-07-14T01:47:00Z,00000380,00000600,0001.43,0000.61,0001.25,-000.18,-000.23,0000.16,-000.05,-000.15,-000.13,23.2,04.1,0670.0,31.0
2020-07-14T01:48:00Z,00000380,00000600,0001.28,0000.60,0000.14,-000.05,0000.13,-000.15,0000.18,0000.17,0000.06,23.2,04.1,0670.0,31.0
2020-07-14T01:49:00Z,00000380,00000600,0001.50,0000.82,0000.72,-000.43,-000.09,0000.48,-000.02,0000.07,0000.07,23.2,04.1,0670.0,30.9
2020-07-14T01:50:00Z,00000380,00000600,0000.42,0000.44,0000.51,-000.46,0000.02,-000.12,0000.12,-000.02,0000.13,23.2,04.0,0670.0,30.9
2020-07-14T01:51:00Z,00000380,00000600,0001.09,0000.92,0000.91,-000.70,0000.49,0000.07,0000.04,0000.21,0000.07,23.2,04.1,0670.0,30.9
2020-07-14T01:52:00Z,00000380,00000600,0001.43,0000.80,0000.81,0000.11,0000.10,0000.66,-000.11,-000.03,-000.04,23.2,04.0,0670.0,30.9
2020-07-14T01:53:00Z,00000380,00000600,0000.78,0000.67,0000.80,-000.12,0000.13,0000.17,0000.01,-000.17,-000.07,23.2,04.1,0670.1,30.9
2020-07-14T01:54:00Z,00000380,00000600,0001.20,0000.95,0000.17,-000.01,0000.12,0000.35,0000.13,0000.24,0000.12,23.2,04.0,0670.1,31.0
2020-07-14T01:55:00Z,00000380,00000600,0001.12,0000.57,0000.10,-000.11,0000.16,-000.02,0000.08,0000.07,0000.03,23.2,04.0,0670.1,31.0
2020-07-14T01:56:00Z,00000380,00000600,0001.62,0000.82,0000.56,-000.36,0000.29,-000.01,0000.09,0000.02,0000.08,23.3,04.0,0670.2,31.0
2020-07-14T01:57:00Z,00000380,40000600,,,,,,,,,,23.3,04.3,0670.3,31.0
2020-07-14T01:58:00Z,00000380,60000600,,,,,,,,,,23.5,04.2,0669.2,31.0
2020-07-14T01:59:00Z,00000380,20000600,,,,,,,,,,23.6,04.1,0669.1,31.0
2020-07-14T02:00:00Z,00000380,20000600,,,,,,,,,,23.6,04.1,0669.1,31.0
2020-07-14T02:01:00Z,00000380,20000600,,,,,,,,,,23.6,04.1,0669.1,31.0
2020-07-14T02:02:00Z,00000380,20000600,,,,,,,,,,23.6,04.0,0669.1,31.0
2020-07-14T02:03:00Z,00000380,60000600,,,,,,,,,,23.6,03.9,0669.1,31.0
2020-07-14T02:04:00Z,00000380,40000600,0001.41,0000.31,0000.54,0001.42,-000.09,0000.28,0000.08,-000.03,-000.11,23.4,04.0,0670.0,31.0
2020-07-14T02:05:00Z,00000380,00000600,0001.53,0000.61,-000.17,0000.72,-000.27,-000.17,0000.00,-000.06,0000.09,23.4,04.0,0670.1,31.0
2020-07-14T02:06:00Z,00000380,00000600,0000.75,-000.15,0000.14,0000.32,-000.07,0000.11,-000.03,0000.03,-000.03,23.3,04.0,0670.0,31.0
2020-07-14T02:07:00Z,00000380,00000600,0000.89,0000.31,0000.56,0001.01,-000.08,0000.44,0000.19,0000.14,0000.12,23.3,04.1,0670.0,31.0
2020-07-14T02:08:00Z,00000380,00000600,0000.58,0000.39,-000.33,0000.20,0000.08,0000.03,0000.02,0000.10,0000.00,23.3,04.0,0670.1,31.0
2020-07-14T02:09:00Z,00000380,00000600,0001.04,0000.27,0000.50,0000.63,0000.07,0000.20,-000.07,-000.06,-000.11,23.3,04.1,0670.1,31.0
2020-07-14T02:10:00Z,00000380,00000600,0000.66,0000.91,0000.60,0000.99,-000.43,0000.42,0000.08,0000.09,0000.10,23.3,04.1,0670.1,31.0
2020-07-14T02:11:00Z,00000380,00000600,0001.22,0000.63,0000.10,0000.62,0000.00,0000.35,-000.03,-000.04,0000.02,23.3,04.1,0670.0,31.0
2020-07-14T02:12:00Z,00000380,00000600,0001.44,0000.77,0000.11,0001.29,-000.01,0000.35,0000.06,0000.09,0000.02,23.3,04.1,0670.1,31.0
2020-07-14T02:13:00Z,00000380,00000600,0000.20,0000.24,0000.18,0000.13,0000.21,0000.11,0000.01,-000.01,0000.01,23.2,04.1,0670.1,31.0
2020-07-14T02:14:00Z,00000380,00000600,0001.33,0000.70,0000.35,0000.84,-000.12,0000.03,0000.03,-000.03,0000.06,23.2,04.1,0670.1,31.0
2020-07-14T02:15:00Z,00000380,00000600,0000.48,0000.45,0000.12,-000.21,0000.52,-000.02,0000.01,0000.17,-000.06,23.2,04.1,0670.1,31.0
2020-07-14T02:16:00Z,00000380,00000600,0001.51,0000.65,0000.68,0000.49,-000.17,0000.40,-000.00,0000.00,0000.21,23.2,04.0,0670.1,30.9
2020-07-14T02:17:00Z,00000380,00000600,0001.52,0000.21,0000.18,0000.80,-000.20,-000.01,0000.10,-000.07,0000.02,23.2,04.0,0670.1,30.9
2020-07-14T02:18:00Z,00000380,00000600,0000.42,-000.00,0000.99,0000.54,-000.01,0000.25,-000.02,-000.09,-000.23,23.2,04.0,0670.1,30.9
2020-07-14T02:19:00Z,00000380,00000600,0001.60,0000.14,0000.37,0000.75,0000.05,0000.43,0000.00,0000.20,0000.27,23.2,04.0,0670.1,31.0
2020-07-14T02:20:00Z,00000380,00000600,0000.58,0000.68,0000.61,0000.52,0000.25,0000.29,-000.07,-000.17,-000.28,23.2,04.0,0670.1,31.0
2020-07-14T02:21:00Z,00000380,00000600,0001.28,0001.21,0000.43,-000.21,0000.18,0000.40,-000.04,0000.18,0000.13,23.2,03.9,0670.1,31.0
2020-07-14T02:22:00Z,00000380,00000600,0002.04,0000.12,0000.04,0000.56,0000.11,0000.40,-000.07,-000.05,0000.14,23.2,03.8,0670.1,31.0
2020-07-14T02:23:00Z,00000380,00000600,0000.32,0000.83,0000.17,0000.84,0000.28,0000.22,0000.06,-000.06,-000.06,23.2,03.8,0670.1,31.0
2020-07-14T02:24:00Z,00000380,00000600,0001.48,0000.87,0000.40,0000.47,0000.14,0000.19,0000.29,0000.29,0000.11,23.2,03.8,0670.1,31.0
2020-07-14T02:25:00Z,00000380,00000600,0000.88,0000.09,0000.66,-000.16,0000.04,0000.20,-000.07,0000.06,0000.26,23.2,03.8,0670.1,31.0
2020-07-14T02:26:00Z,00000380,00000600,0001.39,0000.25,0000.51,0000.22,-000.13,0000.72,-000.10,-000.02,-000.24,23.2,03.8,0670.1,31.0
2020-07-14T02:27:00Z,00000380,00000600,0001.04,0000.51,0000.52,0000.21,0000.19,0000.37,0000.02,-000.04,0000.10,23.2,03.8,0670.2,31.0
2020-07-14T02:28:00Z,00000380,00000600,0000.54,0000.53,0000.08,-000.50,-000.39,0000.66,0000.15,-000.06,0000.02,23.3,03.8,0670.2,31.0
2020-07-14T02:29:00Z,00000380,00000600,0000.58,0000.65,0000.16,-000.13,-000.15,0000.34,-000.10,-000.03,-000.05,23.3,03.7,0670.2,31.0
2020-07-14T02:30:00Z,00000380,00010600,0000.29,0000.57,0000.10,0000.50,-000.23,0000.63,0000.09,0000.17,0000.16,23.3,03.8,0670.2,31.0
2020-07-14T02:31:00Z,00000380,00000600,0001.01,0000.48,0000.28,0001.31,-000.14,0000.32,0000.02,-000.02,-000.14,23.2,03.8,0670.1,31.0
2020-07-14T02:32:00Z,00000380,00000600,0001.57,0000.53,0000.42,0000.54,0000.25,0000.11,0000.10,0000.08,-000.02,23.2,03.7,0670.1,31.0
2020-07-14T02:33:00Z,00000380,00000600,0000.33,0000.30,0000.17,0000.17,-000.12,0000.41,-000.01,-000.01,0000.07,23.2,03.8,0670.1,31.0
2020-07-14T02:34:00Z,00000380,00000600,0000.91,0000.15,-000.27,0000.15,-000.00,0000.12,-000.09,-000.00,0000.07,23.2,03.7,0670.1,31.0
2020-07-14T02:35:00Z,00000380,00000600,0001.80,0000.21,0000.46,0000.49,0000.21,0000.21,0000.05,0000.05,-000.01,23.2,03.7,0670.1,31.0
2020-07-14T02:36:00Z,00000380,00000600,0000.90,0000.39,0000.50,0001.15,0000.09,0000.06,0000.03,0000.07,0000.06,23.2,03.7,0670.1,31.0
2020-07-14T02:37:00Z,00000380,00000600,0000.67,0000.28,0000.58,0000.62,0000.21,0000.26,0000.09,-000.08,0000.02,23.2,03.7,0670.1,31.0
2020-07-14T02:38:00Z,00000380,00000600,0001.18,0000.36,0000.45,0000.26,-000.21,0000.51,-000.10,-000.03,-000.01,23.2,03.7,0670.1,31.0
2020-07-14T02:39:00Z,00000380,00000600,0000.18,0000.40,0000.96,0000.20,-000.10,0000.11,0000.23,0000.14,0000.08,23.2,03.7,0670.1,31.0
2020-07-14T02:40:00Z,00000380,00000600,0000.89,0000.54,0000.55,0000.01,-000.20,0000.20,0000.20,0000.12,0000.28,23.2,03.7,0670.2,31.0
2020-07-14T02:41:00Z,00000380,00000600,0001.80,0000.70,0000.72,0000.17,-000.08,0000.37,-000.14,0000.10,-000.28,23.2,03.7,0670.2,31.0
2020-07-14T02:42:00Z,00000380,00000600,0001.07,0000.36,0000.80,0001.12,0000.33,0000.34,0000.10,-000.00,0000.14,23.2,03.8,0670.1,31.0
2020-07-14T02:43:00Z,00000380,00000600,0000.54,0000.65,0000.75,-000.19,0000.44,0000.24,0000.01,0000.17,0000.00,23.3,03.8,0670.2,31.0
2020-07-14T02:44:00Z,00000380,00000600,0001.14,0000.49,0000.52,0000.17,-000.13,-000.16,0000.01,0000.01,0000.22,23.2,03.8,0670.2,31.0
2020-07-14T02:45:00Z,00000380,00000600,0000.36,0000.35,0000.11,0000.37,-000.18,0000.21,-000.05,-000.00,-000.22,23.2,03.9,0670.2,31.0
2020-07-14T02:46:00Z,00000380,00000600,0000.09,0000.69,0000.07,0000.45,0000.10,-000.15,0000.05,-000.13,0000.13,23.2,03.8,0670.1,31.0
2020-07-14T02:47:00Z,00000380,00000600,0001.53,0000.40,0000.26,0000.58,-000.16,0000.35,-000.10,-000.09,-000.05,23.2,03.7,0670.1,31.0
2020-07-14T02:48:00Z,00000380,00000600,0000.58,0001.02,0000.30,0000.46,0000.02,0000.37,0000.13,-000.00,-000.13,23.2,03.8,0670.1,31.0
2020-07-14T02:49:00Z,00000380,00000600,0000.70,0000.75,0000.52,0001.04,-000.15,0000.04,-000.10,0000.24,0000.19,23.2,03.8,0670.1,31.0
2020-07-14T02:50:00Z,00000380,00000600,0000.17,0000.69,0000.35,0000.05,0000.19,0000.46,0000.07,-000.11,-000.12,23.2,03.8,0670.1,31.0
2020-07-14T02:51:00Z,00000380,00000600,0001.89,0000.53,0000.47,0000.61,-000.14,0000.31,0000.08,0000.14,0000.07,23.2,03.8,0670.1,31.0
2020-07-14T02:52:00Z,00000380,00000600,0000.90,0000.36,0000.33,-000.04,0000.33,0000.09,-000.05,0000.03,0000.04,23.2,03.8,0670.1,31.0
2020-07-14T02:53:00Z,00000380,00000600,0001.15,0000.19,0000.05,0000.60,-000.12,0000.39,-000.01,-000.16,0000.04,23.1,03.8,0670.1,30.9
2020-07-14T02:54:00Z,00000380,00000600,0000.70,0000.12,0000.16,-000.39,0000.15,0000.16,0000.28,0000.30,0000.23,23.1,03.8,0670.1,30.9
2020-07-14T02:55:00Z,00000380,00000600,0001.10,0000.70,0000.24,0001.09,0000.13,0000.11,-000.00,0000.04,-000.01,23.2,03.8,0670.1,31.0
2020-07-14T02:56:00Z,00000380,00000600,0000.92,0000.68,0000.76,0000.52,-000.11,0000.23,-000.18,-000.15,-000.17,23.2,03.7,0670.2,31.0
2020-07-14T02:57:00Z,00000380,40000600,,,,,,,,,,23.3,03.9,0670.2,31.0
2020-07-14T02:58:00Z,00000380,60000600,,,,,,,,,,23.4,03.7,0669.1,31.0
2020-07-14T02:59:00Z,00000380,20000600,,,,,,,,,,23.5,03.7,0669.1,31.0
2020-07-14T03:00:00Z,00000380,20000600,,,,,,,,,,23.5,03.7,0669.1,31.0
2020-07-14T03:01:00Z,00000380,20000600,,,,,,,,,,23.5,03.7,0669.1,31.0
2020-07-14T03:02:00Z,00000380,20000600,,,,,,,,,,23.5,03.6,0669.1,31.0
2020-07-14T03:03:00Z,00000380,60000600,,,,,,,,,,23.5,03.5,0669.1,31.0
2020-07-14T03:04:00Z,00000380,40000600,0001.50,0000.38,0000.13,-000.16,0000.05,0000.40,-000.02,0000.02,-000.16,23.3,03.7,0670.0,31.0
2020-07-14T03:05:00Z,00000380,00000600,0000.81,0000.53,-000.12,0000.85,0000.21,-000.02,0000.01,0000.14,0000.10,23.2,03.8,0670.1,31.0
2020-07-14T03:06:00Z,00000380,00000600,0002.12,0000.70,0000.21,-000.07,0000.51,-000.14,0000.01,-000.08,-000.11,23.2,03.8,0670.1,31.0
2020-07-14T03:07:00Z,00000380,00000600,0001.98,0000.49,0000.09,0000.61,0000.21,-000.02,0000.04,-000.03,0000.06,23.2,03.8,0670.1,31.0
2020-07-14T03:08:00Z,00000380,00000600,0001.29,-000.08,0000.74,0000.40,0000.06,0000.20,0000.07,0000.05,0000.00,23.2,03.9,0670.1,31.0
2020-07-14T03:09:00Z,00000380,00000600,0001.36,0000.87,0000.33,-000.18,0000.34,0000.08,0000.22,0000.25,0000.22,23.1,03.8,0670.1,31.0
2020-07-14T03:10:00Z,00000380,00000600,0001.85,0000.62,0000.24,0000.47,0000.21,-000.14,-000.06,-000.07,-000.03,23.2,03.8,0670.1,31.0